sat.trackr.live / text

‹ back to catalog

STARLINK-4731

NORAD 53703 · 2022-107D

PAYLOAD ACTIVE UNKNOWN

§ Identity

Operator
Country
US
Launch date
2022-09-05
Launch site
AFETR
Launch vehicle
Mass (kg)
RCS (m²)

Purposes: comms

External: N2YO · Heavens-Above · Gunter

§ Orbital elements

Epoch: 2026-05-25T00:56:37.260096Z

Period
95.44 min
Inclination
53.2152°
Eccentricity
0.0001334
Mean motion
15.08831471 rev/d
Perigee alt
538.8 km
Apogee alt
540.7 km
Semi-major
6,917.9 km
B*
1.0382e-4
RAAN
261.1165°
Arg perigee
86.0592°
Mean anomaly
274.0553°
Rev number
20,638

§ Raw data

STARLINK-47311 53703U 22107D   26145.03932014  .00001364  00000+0  10382-3 0  99902 53703  53.2152 261.1165 0001334  86.0592 274.0553 15.08831471206384

JSON: /api/v1/satellites/53703 · /tle

For live sub-satellite position, see the globe view (requires WebGL).

§ Visibility from observer

Set your observer location to see the next 7 days of passes ≥ 10°. The values pass through the URL so the page stays shareable.

No JS? Fill the form by hand. The geolocation button needs JavaScript.